Regional Weather Roundup
Issued by NWS Little Rock, AR

Home | Current Version | Previous Version | Text Only | Print | Product List | Glossary Off
Versions: 1 2 3 4 5 6 7 8 9 10 11 12 13 14 15 16 17 18 19 20 21 22 23 24 25 26 27 28 29 30 31 32 33 34 35 36 37 38 39 40 41 42 43 44 45 46 47 48 49 50

000
ASUS44 KLZK 041405
RWRLZK

WEATHER ROUNDUP FOR ARKANSAS
NATIONAL WEATHER SERVICE LITTLE ROCK AR
900 AM CDT FRI SEP 04 2015

NOTE: "FAIR" INDICATES FEW OR NO CLOUDS BELOW 12,000 FEET WITH NO
SIGNIFICANT WEATHER AND/OR OBSTRUCTIONS TO VISIBILITY.

ARZ001-003-010-029-041500-
NORTHWEST ARKANSAS

CITY           SKY/WX    TMP DP  RH WIND       PRES   REMARKS
FAYETTEVILLE   MOSUNNY   70  69  97 CALM      30.05R FOG
FORT SMITH     SUNNY     77  69  76 NE9       30.00R
HARRISON       MOSUNNY   77  70  79 SE7       30.06R
BENTONVILLE    PTSUNNY   75  66  73 S5        30.05R
ROGERS         PTSUNNY   75  69  81 SE7       30.06R
SILOAM SPGS    MOSUNNY   73  64  73 SE5       30.03R
HIGHFILL       MOSUNNY   74  69  85 SE5       30.04R
SPRINGDALE     PTSUNNY   73  68  83 SE3       30.07R
$$

ARZ004-005-016-041500-
NORTH CENTRAL ARKANSAS

CITY           SKY/WX    TMP DP  RH WIND       PRES   REMARKS
BATESVILLE     SUNNY     75  72  88 CALM      30.04R
FLIPPIN        SUNNY     75  66  73 CALM      30.03R
MTN HOME       SUNNY     77  70  79 VRB3      30.04R
$$

ARZ040-041-041500-
WEST CENTRAL ARKANSAS

CITY           SKY/WX    TMP DP  RH WIND       PRES   REMARKS
MENA           SUNNY     77  70  78 CALM      30.03S
MOUNT IDA      SUNNY     79  70  74 CALM      30.00R
$$

ARZ009-017-025-026-028-041500-
NORTHEAST ARKANSAS

CITY           SKY/WX    TMP DP  RH WIND       PRES   REMARKS
JONESBORO      SUNNY     79  73  82 E3        30.02S
NEWPORT        SUNNY     79  75  87 CALM      30.04R
WALNUT RIDGE   SUNNY     79  72  78 NE3       30.03S
BLYTHEVILLE    SUNNY     81  75  82 E3        30.03R HX  87
$$

ARZ022-023-033-042-044-041500-
CENTRAL ARKANSAS

CITY           SKY/WX    TMP DP  RH WIND       PRES   REMARKS
LITTLE ROCK    MOSUNNY   82  70  66 E3        30.01S HX  86
N LITTLE ROCK  MOSUNNY   81  72  73 SE5       30.01S HX  85
JACKSONVILLE   SUNNY     79  71  76 VRB2      30.01S
SEARCY         SUNNY     81  71  71 CALM      30.04R HX  85
HOT SPRINGS    SUNNY     81  68  64 E6        30.01S
RUSSELLVILLE   MOSUNNY   80  69  69 CALM      30.01S
$$

ARZ036-041500-
EAST ARKANSAS

CITY           SKY/WX    TMP DP  RH WIND       PRES   REMARKS
WEST MEMPHIS   SUNNY     81  76  84 CALM      30.01S HX  87
$$

ARZ050-053-066-070-073-041500-
SOUTHWEST ARKANSAS

CITY           SKY/WX    TMP DP  RH WIND       PRES   REMARKS
ARKADELPHIA    FAIR      81  72  74 CALM      30.01R HX  85
CAMDEN         PTSUNNY   77  68  73 CALM      30.00R
TEXARKANA      PTSUNNY   78  71  79 CALM      30.00R
EL DORADO      MOSUNNY   78  70  76 S5        30.01R
DE QUEEN       SUNNY     79  71  76 E3        29.98S
$$

ARZ056-057-069-041500-
SOUTHEAST ARKANSAS

CITY           SKY/WX    TMP DP  RH WIND       PRES   REMARKS
PINE BLUFF     SUNNY     79  72  79 SE5       30.01R
STUTTGART      SUNNY     81  70  69 E5        30.01S
MONTICELLO     SUNNY     81  72  74 CALM      30.00S HX  85

$$





USA.gov is the U.S. government's official web portal to all federal, state and local government web resources and services.